GEFSSGP_prec_meanprecacc_006.txt.gz
Total_Precipitation_Accumulation
0.00 0.00 0.00 0.00 0.02 0.03 0.05 0.03 0.01 0.00 0.00 0.00 0.00 0.00 0.00 0.00 0.02 0.02 0.00 0.00 0.00 0.00 0.00 0.00 0.00 0.00 0.00 0.00 0.00 0.00 0.00 0.00 0.00 0.00 0.00 0.00 0.00 0.00 0.00 0.00 0.00 0.00 0.00 0.00 0.00 0.00 0.00 0.00 0.00
0.00 0.00 0.00 0.00 0.01 0.06 0.09 0.03 0.01 0.01 0.00 0.00 0.00 0.00 0.00 0.00 0.00 0.00 0.00 0.00 0.00 0.00 0.00 0.00 0.00 0.00 0.00 0.00 0.00 0.00 0.00 0.00 0.00 0.00 0.00 0.00 0.00 0.00 0.00 0.00 0.00 0.00 0.00 0.00 0.00 0.00 0.00 0.00 0.00
0.00 0.00 0.00 0.00 0.01 0.06 0.10 0.03 0.01 0.00 0.02 0.01 0.00 0.00 0.00 0.00 0.00 0.00 0.00 0.00 0.00 0.00 0.00 0.00 0.00 0.00 0.00 0.00 0.00 0.00 0.00 0.00 0.00 0.00 0.00 0.00 0.00 0.00 0.00 0.00 0.00 0.00 0.00 0.00 0.00 0.00 0.00 0.00 0.00
0.00 0.00 0.00 0.00 0.00 0.01 0.01 0.02 0.03 0.02 0.02 0.02 0.01 0.00 0.00 0.00 0.00 0.00 0.00 0.00 0.00 0.00 0.00 0.00 0.00 0.00 0.00 0.00 0.00 0.00 0.00 0.00 0.00 0.00 0.00 0.00 0.00 0.00 0.00 0.00 0.00 0.00 0.00 0.00 0.00 0.00 0.00 0.00 0.00
0.00 0.00 0.00 0.00 0.00 0.00 0.01 0.03 0.07 0.08 0.03 0.02 0.01 0.00 0.00 0.00 0.00 0.00 0.00 0.00 0.00 0.00 0.00 0.00 0.00 0.00 0.00 0.00 0.01 0.01 0.01 0.01 0.00 0.00 0.00 0.00 0.00 0.00 0.00 0.00 0.00 0.00 0.00 0.00 0.00 0.00 0.01 0.00 0.00
0.00 0.00 0.00 0.00 0.00 0.00 0.01 0.05 0.11 0.09 0.04 0.01 0.00 0.00 0.00 0.00 0.00 0.00 0.00 0.00 0.00 0.00 0.00 0.00 0.00 0.00 0.00 0.00 0.00 0.00 0.01 0.01 0.00 0.00 0.00 0.00 0.00 0.00 0.00 0.00 0.00 0.00 0.00 0.00 0.00 0.00 0.01 0.01 0.00
0.00 0.00 0.00 0.00 0.00 0.00 0.01 0.04 0.07 0.07 0.03 0.01 0.02 0.01 0.00 0.00 0.00 0.00 0.00 0.00 0.00 0.00 0.00 0.00 0.00 0.00 0.00 0.00 0.01 0.01 0.01 0.01 0.01 0.01 0.00 0.00 0.00 0.00 0.00 0.00 0.00 0.00 0.00 0.00 0.00 0.00 0.00 0.00 0.00
0.00 0.00 0.00 0.00 0.00 0.00 0.00 0.00 0.01 0.02 0.02 0.01 0.01 0.02 0.00 0.00 0.00 0.00 0.00 0.00 0.00 0.00 0.00 0.00 0.00 0.00 0.00 0.00 0.01 0.01 0.01 0.01 0.01 0.01 0.00 0.00 0.00 0.00 0.00 0.00 0.00 0.00 0.00 0.01 0.00 0.00 0.00 0.00 0.00
0.00 0.00 0.00 0.00 0.00 0.00 0.00 0.00 0.00 0.01 0.01 0.00 0.00 0.00 0.00 0.00 0.00 0.00 0.00 0.00 0.00 0.00 0.00 0.00 0.00 0.00 0.00 0.00 0.00 0.00 0.00 0.00 0.00 0.00 0.00 0.00 0.00 0.00 0.00 0.00 0.01 0.04 0.07 0.08 0.06 0.03 0.02 0.01 0.01
0.00 0.00 0.00 0.00 0.00 0.00 0.00 0.00 0.00 0.01 0.00 0.00 0.01 0.01 0.00 0.00 0.00 0.00 0.00 0.00 0.00 0.00 0.00 0.00 0.00 0.00 0.00 0.00 0.00 0.00 0.00 0.00 0.00 0.00 0.00 0.00 0.00 0.00 0.00 0.01 0.06 0.15 0.19 0.16 0.13 0.14 0.13 0.09 0.05
0.00 0.00 0.00 0.00 0.00 0.00 0.00 0.00 0.00 0.00 0.00 0.00 0.00 0.00 0.00 0.00 0.00 0.00 0.00 0.00 0.00 0.00 0.00 0.00 0.00 0.00 0.00 0.00 0.00 0.00 0.00 0.00 0.00 0.00 0.01 0.02 0.03 0.03 0.03 0.03 0.15 0.24 0.25 0.17 0.20 0.27 0.21 0.17 0.18
0.00 0.00 0.00 0.00 0.00 0.00 0.00 0.00 0.00 0.00 0.00 0.00 0.01 0.01 0.00 0.00 0.00 0.00 0.00 0.00 0.00 0.00 0.00 0.00 0.00 0.00 0.00 0.00 0.00 0.00 0.00 0.01 0.01 0.01 0.06 0.10 0.09 0.12 0.12 0.13 0.17 0.20 0.17 0.13 0.17 0.15 0.15 0.22 0.29
0.00 0.00 0.00 0.00 0.00 0.00 0.00 0.00 0.00 0.00 0.00 0.00 0.01 0.02 0.01 0.00 0.00 0.00 0.00 0.01 0.02 0.03 0.02 0.02 0.01 0.01 0.00 0.00 0.00 0.00 0.00 0.01 0.02 0.03 0.05 0.05 0.12 0.18 0.15 0.14 0.16 0.21 0.20 0.22 0.25 0.21 0.27 0.33 0.37
0.00 0.00 0.00 0.00 0.00 0.00 0.00 0.00 0.00 0.00 0.00 0.00 0.00 0.01 0.01 0.01 0.01 0.02 0.04 0.08 0.14 0.18 0.14 0.13 0.10 0.06 0.04 0.02 0.02 0.02 0.02 0.03 0.04 0.04 0.05 0.06 0.10 0.16 0.15 0.17 0.24 0.28 0.20 0.13 0.12 0.14 0.20 0.23 0.21
0.00 0.00 0.00 0.00 0.00 0.00 0.00 0.00 0.00 0.00 0.00 0.00 0.01 0.03 0.04 0.05 0.07 0.16 0.30 0.51 0.78 0.87 0.62 0.41 0.32 0.25 0.19 0.19 0.18 0.11 0.09 0.10 0.09 0.06 0.07 0.12 0.14 0.16 0.17 0.15 0.15 0.18 0.11 0.05 0.05 0.04 0.05 0.09 0.10
0.00 0.00 0.00 0.00 0.00 0.00 0.00 0.00 0.00 0.00 0.00 0.01 0.04 0.08 0.10 0.15 0.22 0.41 0.75 1.23 1.73 1.93 1.54 1.06 0.89 0.81 0.58 0.43 0.25 0.12 0.10 0.10 0.06 0.03 0.05 0.10 0.08 0.06 0.04 0.03 0.03 0.02 0.01 0.01 0.01 0.02 0.01 0.02 0.03
0.00 0.00 0.00 0.00 0.00 0.00 0.00 0.00 0.00 0.00 0.00 0.01 0.04 0.07 0.09 0.14 0.21 0.36 0.79 1.38 2.10 2.63 2.50 1.98 1.80 1.62 1.02 0.45 0.21 0.13 0.09 0.05 0.02 0.02 0.03 0.04 0.03 0.02 0.01 0.00 0.00 0.00 0.00 0.00 0.00 0.00 0.01 0.01 0.01
0.00 0.00 0.00 0.00 0.00 0.00 0.00 0.00 0.00 0.00 0.00 0.00 0.01 0.03 0.08 0.15 0.20 0.28 0.51 0.80 1.50 1.98 1.93 1.82 1.80 1.36 0.75 0.35 0.19 0.09 0.04 0.02 0.01 0.00 0.01 0.01 0.00 0.00 0.00 0.00 0.00 0.00 0.00 0.00 0.00 0.00 0.01 0.01 0.01
0.00 0.00 0.00 0.00 0.00 0.00 0.00 0.00 0.00 0.00 0.00 0.00 0.00 0.02 0.05 0.14 0.22 0.29 0.36 0.39 0.64 0.81 0.83 0.94 0.86 0.69 0.38 0.23 0.12 0.06 0.02 0.01 0.00 0.00 0.00 0.00 0.00 0.00 0.00 0.00 0.00 0.00 0.00 0.00 0.00 0.00 0.00 0.00 0.00
0.00 0.00 0.00 0.00 0.00 0.00 0.00 0.00 0.00 0.00 0.00 0.00 0.00 0.03 0.07 0.13 0.19 0.18 0.14 0.26 0.30 0.38 0.43 0.45 0.43 0.32 0.16 0.09 0.06 0.04 0.02 0.01 0.00 0.00 0.00 0.00 0.00 0.00 0.00 0.00 0.00 0.00 0.00 0.00 0.00 0.00 0.00 0.00 0.00
0.00 0.00 0.00 0.00 0.00 0.00 0.00 0.00 0.00 0.00 0.01 0.02 0.03 0.04 0.07 0.09 0.06 0.04 0.03 0.08 0.25 0.44 0.38 0.22 0.19 0.13 0.07 0.04 0.03 0.01 0.01 0.01 0.01 0.00 0.00 0.00 0.00 0.00 0.00 0.00 0.00 0.00 0.00 0.00 0.00 0.00 0.00 0.00 0.00
0.00 0.00 0.00 0.00 0.00 0.00 0.00 0.00 0.02 0.03 0.04 0.05 0.06 0.05 0.03 0.01 0.00 0.01 0.02 0.04 0.12 0.24 0.24 0.17 0.14 0.11 0.05 0.03 0.02 0.01 0.00 0.00 0.00 0.00 0.00 0.00 0.00 0.00 0.00 0.00 0.00 0.00 0.00 0.00 0.00 0.00 0.00 0.00 0.00
0.00 0.00 0.00 0.00 0.00 0.00 0.00 0.01 0.06 0.07 0.07 0.06 0.04 0.03 0.01 0.00 0.00 0.00 0.00 0.00 0.01 0.04 0.09 0.12 0.16 0.20 0.11 0.06 0.04 0.04 0.02 0.01 0.01 0.01 0.01 0.01 0.00 0.00 0.00 0.00 0.00 0.00 0.00 0.00 0.00 0.00 0.00 0.00 0.00
0.00 0.00 0.00 0.00 0.00 0.00 0.01 0.01 0.05 0.06 0.04 0.02 0.01 0.01 0.01 0.01 0.01 0.00 0.00 0.00 0.01 0.04 0.05 0.07 0.13 0.18 0.15 0.11 0.09 0.10 0.11 0.09 0.07 0.06 0.06 0.05 0.03 0.02 0.01 0.00 0.00 0.00 0.00 0.00 0.00 0.00 0.00 0.00 0.00
0.00 0.00 0.00 0.00 0.01 0.00 0.00 0.02 0.07 0.08 0.04 0.01 0.00 0.00 0.00 0.00 0.00 0.01 0.01 0.01 0.01 0.03 0.03 0.03 0.05 0.08 0.10 0.09 0.09 0.14 0.22 0.27 0.26 0.21 0.15 0.10 0.07 0.04 0.02 0.01 0.01 0.00 0.00 0.00 0.00 0.00 0.00 0.00 0.00
0.00 0.00 0.00 0.00 0.00 0.00 0.01 0.03 0.06 0.05 0.02 0.00 0.00 0.00 0.00 0.00 0.00 0.00 0.01 0.01 0.01 0.01 0.01 0.01 0.01 0.01 0.02 0.03 0.05 0.07 0.11 0.18 0.26 0.29 0.26 0.23 0.22 0.14 0.06 0.02 0.01 0.01 0.00 0.00 0.00 0.00 0.00 0.00 0.00
0.00 0.00 0.00 0.00 0.00 0.00 0.00 0.01 0.02 0.01 0.00 0.00 0.00 0.00 0.00 0.00 0.00 0.00 0.00 0.00 0.00 0.00 0.00 0.00 0.00 0.00 0.00 0.00 0.01 0.01 0.02 0.03 0.06 0.10 0.14 0.20 0.28 0.24 0.15 0.08 0.05 0.02 0.01 0.00 0.00 0.00 0.00 0.00 0.00
0.01 0.00 0.00 0.00 0.00 0.00 0.00 0.02 0.06 0.04 0.03 0.01 0.01 0.00 0.00 0.00 0.00 0.00 0.00 0.00 0.00 0.00 0.00 0.00 0.00 0.00 0.00 0.00 0.00 0.00 0.01 0.01 0.02 0.03 0.04 0.06 0.10 0.13 0.13 0.10 0.08 0.05 0.03 0.02 0.01 0.00 0.00 0.00 0.00
0.00 0.00 0.00 0.00 0.00 0.00 0.00 0.02 0.05 0.05 0.03 0.01 0.01 0.00 0.00 0.00 0.00 0.00 0.00 0.00 0.00 0.00 0.00 0.00 0.00 0.00 0.00 0.00 0.00 0.00 0.00 0.00 0.00 0.01 0.01 0.01 0.01 0.02 0.03 0.04 0.05 0.04 0.03 0.02 0.01 0.01 0.00 0.00 0.00
0.00 0.00 0.00 0.01 0.01 0.01 0.01 0.01 0.01 0.01 0.01 0.00 0.00 0.00 0.00 0.00 0.00 0.00 0.00 0.00 0.00 0.00 0.00 0.00 0.00 0.00 0.00 0.00 0.00 0.00 0.00 0.00 0.00 0.00 0.00 0.00 0.00 0.00 0.00 0.00 0.01 0.01 0.01 0.02 0.02 0.02 0.01 0.01 0.00

GEFSSGP_prec_meanprecacc_012.txt.gz
Total_Precipitation_Accumulation
0.00 0.00 0.00 0.00 0.02 0.04 0.06 0.03 0.01 0.00 0.00 0.00 0.00 0.00 0.00 0.00 0.02 0.02 0.00 0.00 0.00 0.00 0.00 0.00 0.00 0.00 0.00 0.00 0.00 0.00 0.00 0.00 0.00 0.00 0.00 0.00 0.00 0.00 0.00 0.00 0.00 0.00 0.00 0.00 0.00 0.00 0.00 0.00 0.00
0.00 0.00 0.00 0.00 0.02 0.06 0.09 0.03 0.01 0.01 0.00 0.00 0.00 0.00 0.00 0.00 0.00 0.00 0.00 0.00 0.00 0.00 0.00 0.00 0.00 0.00 0.00 0.00 0.00 0.00 0.00 0.00 0.00 0.00 0.00 0.00 0.00 0.00 0.00 0.00 0.00 0.00 0.00 0.00 0.00 0.00 0.00 0.00 0.00
0.00 0.00 0.00 0.00 0.01 0.06 0.10 0.03 0.01 0.01 0.02 0.01 0.00 0.00 0.00 0.00 0.00 0.00 0.00 0.00 0.00 0.00 0.00 0.00 0.00 0.00 0.00 0.00 0.00 0.00 0.00 0.00 0.00 0.00 0.00 0.00 0.00 0.00 0.00 0.00 0.00 0.00 0.00 0.00 0.00 0.00 0.00 0.00 0.00
0.00 0.00 0.00 0.00 0.00 0.01 0.01 0.02 0.03 0.02 0.02 0.02 0.01 0.00 0.00 0.00 0.00 0.00 0.00 0.00 0.00 0.00 0.00 0.00 0.00 0.00 0.00 0.00 0.00 0.00 0.00 0.00 0.00 0.00 0.00 0.00 0.00 0.00 0.00 0.00 0.00 0.00 0.00 0.00 0.00 0.00 0.00 0.00 0.00
0.00 0.00 0.00 0.00 0.00 0.00 0.01 0.03 0.07 0.08 0.03 0.02 0.01 0.00 0.00 0.00 0.00 0.00 0.00 0.00 0.00 0.00 0.00 0.00 0.00 0.00 0.00 0.00 0.01 0.01 0.01 0.01 0.00 0.00 0.00 0.00 0.00 0.00 0.00 0.00 0.00 0.00 0.00 0.00 0.00 0.00 0.01 0.01 0.00
0.00 0.00 0.00 0.00 0.00 0.00 0.01 0.05 0.11 0.09 0.04 0.01 0.00 0.00 0.00 0.00 0.00 0.00 0.00 0.00 0.00 0.00 0.00 0.00 0.00 0.00 0.00 0.00 0.01 0.01 0.01 0.01 0.01 0.01 0.00 0.00 0.00 0.00 0.00 0.00 0.00 0.00 0.00 0.00 0.00 0.00 0.01 0.01 0.00
0.00 0.00 0.00 0.00 0.00 0.00 0.01 0.04 0.07 0.07 0.03 0.01 0.02 0.01 0.00 0.00 0.00 0.00 0.00 0.00 0.00 0.00 0.00 0.00 0.01 0.01 0.01 0.01 0.01 0.01 0.02 0.02 0.02 0.01 0.01 0.00 0.00 0.01 0.01 0.01 0.00 0.00 0.00 0.00 0.00 0.00 0.00 0.01 0.01
0.00 0.00 0.00 0.00 0.00 0.00 0.00 0.00 0.01 0.02 0.02 0.01 0.01 0.02 0.00 0.00 0.00 0.00 0.00 0.00 0.00 0.00 0.00 0.01 0.01 0.01 0.02 0.02 0.03 0.03 0.03 0.03 0.03 0.02 0.01 0.01 0.01 0.01 0.01 0.00 0.00 0.00 0.01 0.01 0.01 0.00 0.00 0.00 0.02
0.00 0.00 0.00 0.00 0.00 0.00 0.00 0.00 0.00 0.01 0.01 0.00 0.00 0.00 0.00 0.00 0.00 0.00 0.00 0.00 0.00 0.01 0.01 0.01 0.02 0.02 0.03 0.03 0.04 0.05 0.06 0.07 0.07 0.05 0.03 0.01 0.01 0.00 0.00 0.00 0.01 0.04 0.08 0.10 0.10 0.08 0.06 0.06 0.03
0.00 0.00 0.00 0.00 0.00 0.00 0.00 0.00 0.00 0.01 0.00 0.00 0.01 0.01 0.00 0.00 0.00 0.00 0.00 0.00 0.01 0.01 0.01 0.02 0.02 0.02 0.03 0.04 0.05 0.06 0.08 0.09 0.09 0.07 0.05 0.03 0.01 0.00 0.00 0.01 0.07 0.17 0.26 0.27 0.26 0.32 0.36 0.31 0.15
0.00 0.00 0.00 0.00 0.00 0.00 0.00 0.00 0.00 0.00 0.00 0.00 0.00 0.00 0.00 0.00 0.00 0.00 0.00 0.00 0.01 0.01 0.02 0.03 0.02 0.02 0.03 0.03 0.03 0.03 0.05 0.07 0.07 0.06 0.06 0.06 0.05 0.04 0.04 0.05 0.18 0.33 0.44 0.36 0.42 0.61 0.51 0.42 0.39
0.00 0.00 0.00 0.00 0.00 0.00 0.00 0.00 0.00 0.00 0.00 0.00 0.01 0.01 0.00 0.00 0.00 0.00 0.00 0.01 0.03 0.06 0.11 0.13 0.11 0.09 0.05 0.03 0.02 0.01 0.03 0.05 0.06 0.08 0.14 0.17 0.18 0.25 0.27 0.29 0.32 0.37 0.40 0.40 0.42 0.39 0.43 0.60 0.66
0.00 0.00 0.00 0.00 0.00 0.00 0.00 0.00 0.00 0.00 0.00 0.00 0.01 0.02 0.01 0.00 0.00 0.01 0.02 0.04 0.12 0.26 0.32 0.33 0.29 0.21 0.12 0.08 0.05 0.04 0.04 0.07 0.13 0.17 0.20 0.24 0.42 0.54 0.50 0.39 0.32 0.36 0.42 0.52 0.63 0.61 0.73 0.82 0.74
0.00 0.00 0.00 0.00 0.00 0.00 0.00 0.00 0.00 0.00 0.00 0.00 0.00 0.01 0.01 0.01 0.02 0.06 0.12 0.23 0.39 0.55 0.59 0.58 0.48 0.34 0.26 0.22 0.20 0.20 0.21 0.21 0.24 0.25 0.31 0.38 0.48 0.57 0.47 0.40 0.39 0.43 0.38 0.34 0.40 0.45 0.50 0.50 0.42
0.00 0.00 0.00 0.00 0.00 0.00 0.00 0.00 0.00 0.00 0.00 0.00 0.01 0.03 0.05 0.08 0.15 0.30 0.53 0.80 1.10 1.25 1.08 0.78 0.60 0.55 0.54 0.59 0.58 0.50 0.42 0.35 0.34 0.29 0.32 0.37 0.38 0.40 0.38 0.34 0.29 0.31 0.24 0.19 0.21 0.23 0.22 0.22 0.19
0.00 0.00 0.00 0.00 0.00 0.00 0.00 0.00 0.00 0.00 0.00 0.01 0.06 0.11 0.16 0.25 0.36 0.62 0.98 1.49 1.98 2.18 1.82 1.29 1.11 1.19 1.11 0.99 0.74 0.54 0.45 0.35 0.26 0.20 0.20 0.22 0.19 0.16 0.13 0.10 0.07 0.06 0.04 0.04 0.06 0.06 0.05 0.04 0.04
0.00 0.00 0.00 0.00 0.00 0.00 0.00 0.00 0.00 0.00 0.01 0.03 0.08 0.14 0.19 0.26 0.34 0.49 0.92 1.50 2.21 2.72 2.63 2.09 1.96 2.02 1.52 0.91 0.59 0.44 0.36 0.24 0.16 0.14 0.12 0.11 0.10 0.07 0.05 0.03 0.01 0.01 0.01 0.01 0.01 0.01 0.01 0.01 0.02
0.00 0.00 0.00 0.00 0.00 0.00 0.00 0.00 0.00 0.01 0.02 0.03 0.06 0.10 0.16 0.24 0.28 0.35 0.56 0.83 1.52 1.99 1.95 1.85 1.87 1.52 0.99 0.56 0.37 0.25 0.20 0.13 0.08 0.07 0.06 0.06 0.05 0.04 0.03 0.02 0.01 0.00 0.00 0.00 0.00 0.01 0.01 0.01 0.01
0.00 0.00 0.00 0.00 0.00 0.00 0.00 0.00 0.00 0.00 0.01 0.02 0.03 0.05 0.10 0.19 0.26 0.32 0.37 0.40 0.64 0.81 0.84 0.96 0.92 0.82 0.51 0.34 0.21 0.13 0.08 0.06 0.03 0.02 0.03 0.03 0.02 0.02 0.02 0.01 0.00 0.00 0.00 0.00 0.00 0.00 0.00 0.00 0.00
0.00 0.00 0.00 0.00 0.00 0.00 0.00 0.00 0.00 0.00 0.00 0.01 0.02 0.05 0.10 0.15 0.20 0.19 0.15 0.27 0.31 0.38 0.44 0.47 0.48 0.40 0.24 0.16 0.13 0.11 0.08 0.05 0.03 0.02 0.02 0.02 0.02 0.01 0.02 0.01 0.00 0.00 0.00 0.00 0.00 0.00 0.00 0.00 0.00
0.00 0.00 0.00 0.00 0.00 0.00 0.00 0.00 0.00 0.00 0.01 0.03 0.05 0.06 0.10 0.11 0.07 0.04 0.04 0.08 0.25 0.45 0.39 0.24 0.24 0.18 0.12 0.09 0.09 0.08 0.08 0.07 0.05 0.03 0.02 0.02 0.03 0.02 0.02 0.01 0.00 0.00 0.00 0.00 0.00 0.00 0.00 0.00 0.00
0.00 0.00 0.00 0.00 0.00 0.00 0.00 0.00 0.02 0.03 0.05 0.08 0.09 0.08 0.06 0.03 0.01 0.01 0.02 0.05 0.14 0.26 0.25 0.20 0.18 0.17 0.10 0.08 0.07 0.06 0.06 0.06 0.07 0.05 0.04 0.04 0.03 0.03 0.02 0.01 0.01 0.00 0.00 0.00 0.00 0.00 0.00 0.00 0.00
0.00 0.00 0.00 0.00 0.00 0.00 0.00 0.01 0.06 0.07 0.09 0.09 0.07 0.05 0.03 0.01 0.01 0.00 0.00 0.01 0.02 0.05 0.11 0.14 0.20 0.25 0.17 0.12 0.09 0.08 0.06 0.05 0.06 0.06 0.07 0.07 0.08 0.08 0.07 0.05 0.03 0.02 0.01 0.00 0.00 0.00 0.00 0.00 0.00
0.00 0.00 0.00 0.00 0.00 0.00 0.01 0.01 0.05 0.06 0.05 0.03 0.02 0.01 0.01 0.01 0.01 0.00 0.00 0.00 0.01 0.04 0.06 0.08 0.14 0.19 0.17 0.14 0.13 0.14 0.14 0.12 0.11 0.11 0.11 0.13 0.17 0.18 0.17 0.15 0.12 0.09 0.05 0.02 0.01 0.00 0.00 0.00 0.00
0.00 0.00 0.00 0.00 0.01 0.00 0.01 0.02 0.07 0.08 0.04 0.01 0.01 0.01 0.00 0.00 0.00 0.01 0.01 0.01 0.01 0.03 0.03 0.03 0.05 0.08 0.10 0.09 0.10 0.15 0.23 0.28 0.29 0.25 0.21 0.20 0.21 0.23 0.22 0.21 0.20 0.19 0.15 0.09 0.04 0.01 0.00 0.00 0.00
0.00 0.00 0.00 0.00 0.00 0.00 0.01 0.03 0.06 0.06 0.02 0.01 0.00 0.00 0.00 0.00 0.00 0.00 0.01 0.01 0.01 0.01 0.01 0.01 0.01 0.01 0.02 0.03 0.05 0.07 0.11 0.18 0.26 0.31 0.29 0.30 0.32 0.27 0.23 0.21 0.21 0.23 0.22 0.19 0.13 0.07 0.03 0.01 0.00
0.00 0.00 0.00 0.01 0.00 0.00 0.00 0.01 0.03 0.02 0.01 0.00 0.00 0.00 0.00 0.00 0.00 0.00 0.00 0.00 0.00 0.00 0.00 0.00 0.00 0.00 0.00 0.00 0.01 0.01 0.02 0.03 0.06 0.10 0.14 0.21 0.31 0.30 0.24 0.20 0.19 0.21 0.23 0.24 0.19 0.12 0.07 0.03 0.00
0.01 0.00 0.00 0.00 0.00 0.00 0.00 0.03 0.08 0.05 0.03 0.01 0.01 0.00 0.00 0.00 0.00 0.00 0.00 0.00 0.00 0.00 0.00 0.00 0.00 0.00 0.00 0.00 0.00 0.00 0.01 0.01 0.02 0.03 0.04 0.06 0.11 0.14 0.15 0.15 0.15 0.16 0.18 0.21 0.22 0.19 0.13 0.06 0.02
0.00 0.00 0.00 0.00 0.00 0.00 0.00 0.03 0.06 0.05 0.03 0.02 0.01 0.00 0.00 0.00 0.00 0.00 0.00 0.00 0.00 0.00 0.00 0.00 0.00 0.00 0.00 0.00 0.00 0.00 0.00 0.00 0.00 0.01 0.01 0.01 0.01 0.02 0.03 0.05 0.07 0.08 0.10 0.13 0.16 0.19 0.19 0.13 0.06
0.00 0.01 0.01 0.01 0.01 0.01 0.01 0.01 0.01 0.01 0.01 0.00 0.00 0.00 0.00 0.00 0.00 0.00 0.00 0.00 0.00 0.00 0.00 0.00 0.00 0.00 0.00 0.00 0.00 0.00 0.00 0.00 0.00 0.00 0.00 0.00 0.00 0.00 0.00 0.00 0.01 0.02 0.03 0.05 0.08 0.13 0.17 0.17 0.13

GEFSSGP_prec_meanprecacc_018.txt.gz
Total_Precipitation_Accumulation
0.00 0.00 0.00 0.00 0.02 0.04 0.06 0.03 0.01 0.00 0.00 0.00 0.00 0.00 0.00 0.00 0.02 0.02 0.00 0.00 0.00 0.00 0.00 0.00 0.00 0.00 0.00 0.00 0.00 0.00 0.00 0.00 0.00 0.00 0.00 0.00 0.00 0.00 0.00 0.00 0.00 0.00 0.00 0.00 0.00 0.00 0.01 0.00 0.00
0.00 0.00 0.00 0.00 0.02 0.06 0.09 0.03 0.01 0.01 0.00 0.00 0.00 0.00 0.00 0.00 0.00 0.00 0.00 0.00 0.00 0.00 0.00 0.00 0.00 0.00 0.00 0.00 0.00 0.00 0.00 0.00 0.00 0.00 0.00 0.00 0.00 0.00 0.00 0.00 0.00 0.00 0.00 0.00 0.00 0.01 0.01 0.01 0.00
0.00 0.00 0.00 0.00 0.01 0.06 0.10 0.03 0.01 0.01 0.02 0.01 0.00 0.00 0.00 0.00 0.00 0.00 0.00 0.00 0.00 0.00 0.00 0.00 0.00 0.00 0.00 0.00 0.00 0.00 0.01 0.01 0.00 0.00 0.00 0.00 0.00 0.00 0.00 0.00 0.00 0.01 0.01 0.01 0.01 0.01 0.02 0.01 0.01
0.00 0.00 0.00 0.00 0.00 0.01 0.01 0.02 0.03 0.02 0.02 0.02 0.01 0.00 0.00 0.00 0.00 0.00 0.00 0.00 0.00 0.00 0.00 0.00 0.01 0.00 0.00 0.00 0.00 0.00 0.01 0.01 0.01 0.00 0.00 0.00 0.01 0.01 0.01 0.01 0.01 0.01 0.01 0.01 0.01 0.01 0.01 0.01 0.01
0.00 0.00 0.00 0.00 0.00 0.00 0.01 0.03 0.07 0.08 0.03 0.02 0.01 0.00 0.00 0.00 0.00 0.00 0.00 0.00 0.00 0.00 0.00 0.00 0.01 0.01 0.01 0.01 0.01 0.01 0.01 0.01 0.01 0.01 0.00 0.00 0.01 0.01 0.01 0.01 0.01 0.01 0.01 0.00 0.00 0.01 0.01 0.01 0.01
0.00 0.00 0.00 0.00 0.00 0.00 0.01 0.05 0.11 0.09 0.04 0.01 0.00 0.00 0.00 0.00 0.00 0.00 0.00 0.00 0.00 0.00 0.00 0.01 0.02 0.02 0.01 0.01 0.01 0.01 0.01 0.01 0.01 0.01 0.00 0.00 0.00 0.01 0.01 0.01 0.01 0.00 0.00 0.00 0.00 0.00 0.01 0.01 0.01
0.00 0.00 0.00 0.00 0.00 0.00 0.01 0.04 0.07 0.07 0.03 0.01 0.02 0.01 0.00 0.00 0.00 0.00 0.00 0.00 0.00 0.00 0.00 0.01 0.02 0.03 0.03 0.02 0.02 0.02 0.02 0.02 0.02 0.01 0.01 0.00 0.00 0.01 0.01 0.01 0.00 0.00 0.00 0.00 0.00 0.00 0.00 0.01 0.01
0.00 0.00 0.00 0.00 0.00 0.00 0.00 0.00 0.01 0.02 0.02 0.01 0.01 0.02 0.00 0.00 0.00 0.00 0.00 0.00 0.01 0.01 0.01 0.02 0.04 0.05 0.05 0.05 0.05 0.04 0.05 0.04 0.03 0.02 0.01 0.01 0.01 0.01 0.01 0.00 0.00 0.01 0.01 0.01 0.01 0.01 0.01 0.01 0.03
0.00 0.00 0.00 0.00 0.00 0.00 0.00 0.00 0.00 0.01 0.01 0.00 0.00 0.00 0.00 0.00 0.00 0.00 0.00 0.00 0.01 0.01 0.02 0.03 0.04 0.06 0.07 0.07 0.07 0.10 0.12 0.13 0.12 0.09 0.05 0.02 0.01 0.01 0.00 0.00 0.01 0.05 0.09 0.11 0.10 0.09 0.08 0.10 0.08
0.00 0.00 0.00 0.00 0.00 0.00 0.00 0.00 0.00 0.01 0.00 0.00 0.01 0.01 0.00 0.00 0.00 0.00 0.00 0.00 0.01 0.01 0.02 0.03 0.04 0.05 0.06 0.07 0.08 0.12 0.15 0.19 0.19 0.17 0.15 0.12 0.07 0.04 0.02 0.02 0.07 0.18 0.28 0.29 0.28 0.35 0.42 0.39 0.25
0.00 0.00 0.00 0.00 0.00 0.00 0.00 0.00 0.00 0.00 0.00 0.00 0.00 0.00 0.00 0.00 0.00 0.00 0.00 0.00 0.01 0.02 0.03 0.03 0.03 0.04 0.04 0.05 0.05 0.09 0.13 0.17 0.17 0.18 0.21 0.24 0.23 0.18 0.16 0.15 0.23 0.36 0.47 0.41 0.47 0.69 0.58 0.51 0.52
0.00 0.00 0.00 0.00 0.00 0.00 0.00 0.00 0.00 0.00 0.00 0.00 0.01 0.01 0.00 0.00 0.00 0.00 0.00 0.01 0.03 0.07 0.12 0.16 0.14 0.11 0.07 0.05 0.05 0.08 0.11 0.15 0.19 0.23 0.32 0.38 0.36 0.40 0.43 0.44 0.44 0.47 0.48 0.48 0.50 0.49 0.54 0.72 0.82
0.00 0.00 0.00 0.00 0.00 0.00 0.00 0.00 0.00 0.00 0.00 0.00 0.01 0.02 0.01 0.00 0.00 0.01 0.02 0.05 0.14 0.28 0.35 0.36 0.33 0.23 0.14 0.10 0.09 0.11 0.15 0.19 0.26 0.34 0.37 0.40 0.57 0.67 0.63 0.49 0.42 0.46 0.54 0.65 0.78 0.75 0.88 0.98 0.89
0.00 0.00 0.00 0.00 0.00 0.00 0.00 0.00 0.00 0.00 0.00 0.00 0.00 0.01 0.01 0.02 0.03 0.06 0.13 0.25 0.42 0.57 0.60 0.60 0.50 0.36 0.28 0.24 0.25 0.28 0.31 0.34 0.37 0.38 0.44 0.54 0.64 0.72 0.62 0.53 0.52 0.56 0.54 0.55 0.65 0.69 0.74 0.72 0.60
0.00 0.00 0.00 0.00 0.00 0.00 0.00 0.00 0.00 0.00 0.00 0.00 0.01 0.03 0.05 0.09 0.16 0.32 0.56 0.83 1.12 1.27 1.09 0.80 0.61 0.56 0.56 0.62 0.64 0.59 0.54 0.49 0.47 0.44 0.49 0.56 0.57 0.60 0.60 0.54 0.46 0.46 0.43 0.40 0.46 0.51 0.50 0.46 0.38
0.00 0.00 0.00 0.00 0.00 0.00 0.00 0.00 0.00 0.00 0.00 0.02 0.06 0.12 0.17 0.27 0.38 0.64 1.00 1.51 2.00 2.19 1.83 1.30 1.13 1.21 1.14 1.04 0.81 0.64 0.57 0.50 0.42 0.38 0.39 0.42 0.40 0.38 0.35 0.30 0.24 0.22 0.18 0.18 0.22 0.25 0.24 0.24 0.26
0.00 0.00 0.00 0.00 0.00 0.00 0.00 0.00 0.00 0.01 0.02 0.04 0.10 0.16 0.22 0.29 0.36 0.50 0.93 1.52 2.23 2.74 2.64 2.10 1.97 2.04 1.55 0.95 0.64 0.49 0.43 0.34 0.30 0.30 0.27 0.28 0.29 0.28 0.26 0.21 0.16 0.12 0.09 0.08 0.08 0.09 0.10 0.12 0.14
0.00 0.00 0.00 0.00 0.00 0.00 0.00 0.00 0.00 0.01 0.04 0.06 0.09 0.13 0.19 0.26 0.30 0.36 0.57 0.84 1.54 2.00 1.96 1.85 1.87 1.53 1.01 0.59 0.40 0.29 0.25 0.20 0.17 0.18 0.18 0.19 0.20 0.22 0.21 0.17 0.13 0.08 0.06 0.05 0.05 0.05 0.05 0.06 0.06
0.00 0.00 0.00 0.00 0.00 0.00 0.00 0.00 0.00 0.01 0.03 0.04 0.05 0.06 0.11 0.20 0.26 0.32 0.37 0.40 0.65 0.82 0.84 0.96 0.92 0.82 0.52 0.35 0.22 0.16 0.13 0.11 0.09 0.10 0.10 0.12 0.14 0.16 0.18 0.15 0.13 0.08 0.06 0.04 0.03 0.03 0.02 0.02 0.02
0.00 0.00 0.00 0.00 0.00 0.00 0.00 0.00 0.00 0.01 0.01 0.02 0.03 0.06 0.10 0.15 0.21 0.19 0.15 0.27 0.31 0.38 0.44 0.47 0.48 0.40 0.24 0.17 0.14 0.13 0.10 0.07 0.06 0.05 0.05 0.06 0.07 0.10 0.13 0.14 0.10 0.08 0.07 0.05 0.03 0.03 0.02 0.01 0.01
0.00 0.00 0.00 0.00 0.00 0.00 0.00 0.01 0.01 0.01 0.02 0.04 0.06 0.07 0.10 0.11 0.07 0.04 0.04 0.08 0.25 0.45 0.39 0.24 0.24 0.19 0.12 0.10 0.10 0.09 0.09 0.09 0.08 0.06 0.06 0.06 0.06 0.07 0.10 0.12 0.11 0.09 0.07 0.06 0.05 0.04 0.03 0.02 0.01
0.00 0.00 0.00 0.00 0.00 0.00 0.01 0.04 0.05 0.05 0.06 0.09 0.10 0.08 0.06 0.03 0.01 0.01 0.02 0.05 0.14 0.26 0.26 0.20 0.19 0.18 0.11 0.08 0.07 0.06 0.06 0.07 0.07 0.06 0.06 0.06 0.06 0.06 0.07 0.08 0.09 0.10 0.10 0.09 0.05 0.04 0.03 0.02 0.01
0.00 0.00 0.00 0.00 0.00 0.00 0.00 0.04 0.11 0.09 0.10 0.09 0.07 0.05 0.03 0.01 0.01 0.00 0.00 0.01 0.02 0.05 0.11 0.14 0.20 0.25 0.17 0.13 0.09 0.08 0.06 0.05 0.06 0.06 0.07 0.08 0.10 0.11 0.12 0.12 0.10 0.09 0.10 0.10 0.08 0.07 0.04 0.03 0.01
0.00 0.00 0.00 0.00 0.00 0.01 0.01 0.03 0.12 0.09 0.05 0.03 0.02 0.01 0.01 0.01 0.01 0.00 0.00 0.00 0.01 0.04 0.06 0.08 0.14 0.19 0.17 0.14 0.13 0.14 0.14 0.12 0.11 0.11 0.11 0.14 0.17 0.19 0.19 0.19 0.20 0.19 0.15 0.11 0.08 0.07 0.05 0.04 0.02
0.00 0.00 0.00 0.00 0.01 0.00 0.01 0.04 0.12 0.09 0.04 0.01 0.01 0.01 0.00 0.00 0.00 0.01 0.01 0.01 0.01 0.03 0.03 0.03 0.05 0.08 0.10 0.09 0.10 0.15 0.23 0.28 0.29 0.25 0.21 0.20 0.21 0.23 0.23 0.22 0.24 0.27 0.27 0.24 0.16 0.08 0.06 0.05 0.04
0.00 0.00 0.00 0.00 0.00 0.00 0.02 0.10 0.09 0.06 0.03 0.01 0.00 0.00 0.00 0.00 0.00 0.00 0.01 0.01 0.01 0.01 0.01 0.01 0.01 0.01 0.02 0.03 0.05 0.07 0.11 0.18 0.26 0.31 0.30 0.30 0.32 0.27 0.23 0.21 0.22 0.25 0.29 0.31 0.27 0.21 0.15 0.10 0.06
0.01 0.00 0.00 0.01 0.00 0.00 0.02 0.05 0.05 0.03 0.01 0.01 0.00 0.00 0.00 0.00 0.00 0.00 0.00 0.00 0.00 0.00 0.00 0.00 0.00 0.00 0.00 0.00 0.01 0.01 0.02 0.03 0.06 0.10 0.14 0.21 0.31 0.30 0.24 0.20 0.19 0.21 0.25 0.29 0.31 0.29 0.28 0.23 0.14
0.01 0.00 0.00 0.00 0.00 0.00 0.00 0.06 0.12 0.06 0.03 0.01 0.01 0.00 0.00 0.00 0.00 0.00 0.00 0.00 0.00 0.00 0.00 0.00 0.00 0.00 0.00 0.00 0.00 0.00 0.01 0.01 0.02 0.03 0.04 0.06 0.11 0.14 0.15 0.15 0.15 0.16 0.18 0.21 0.26 0.32 0.38 0.39 0.34
0.00 0.00 0.00 0.00 0.00 0.00 0.00 0.04 0.07 0.05 0.03 0.02 0.01 0.00 0.00 0.00 0.00 0.00 0.00 0.00 0.00 0.00 0.00 0.00 0.00 0.00 0.00 0.00 0.00 0.00 0.00 0.00 0.00 0.01 0.01 0.01 0.01 0.02 0.03 0.05 0.07 0.08 0.10 0.13 0.17 0.24 0.36 0.49 0.56
0.00 0.01 0.01 0.01 0.01 0.01 0.01 0.01 0.01 0.01 0.01 0.00 0.00 0.00 0.00 0.00 0.00 0.00 0.00 0.00 0.00 0.00 0.00 0.00 0.00 0.00 0.00 0.00 0.00 0.00 0.00 0.00 0.00 0.00 0.00 0.00 0.00 0.00 0.00 0.00 0.01 0.02 0.03 0.05 0.08 0.13 0.21 0.33 0.49

GEFSSGP_prec_meanprecacc_024.txt.gz
Total_Precipitation_Accumulation
0.00 0.00 0.00 0.01 0.06 0.12 0.11 0.04 0.01 0.00 0.00 0.00 0.00 0.00 0.00 0.00 0.02 0.03 0.00 0.00 0.00 0.00 0.00 0.00 0.00 0.00 0.00 0.00 0.00 0.00 0.00 0.00 0.01 0.01 0.02 0.02 0.01 0.01 0.00 0.00 0.00 0.00 0.00 0.01 0.01 0.01 0.01 0.01 0.00
0.00 0.00 0.00 0.00 0.04 0.11 0.10 0.03 0.01 0.01 0.00 0.00 0.00 0.00 0.00 0.00 0.00 0.00 0.00 0.00 0.00 0.00 0.00 0.00 0.00 0.00 0.00 0.00 0.00 0.00 0.00 0.00 0.00 0.00 0.00 0.00 0.00 0.00 0.00 0.00 0.00 0.00 0.01 0.01 0.01 0.01 0.01 0.01 0.00
0.00 0.00 0.00 0.00 0.01 0.07 0.10 0.03 0.01 0.01 0.02 0.01 0.00 0.00 0.00 0.00 0.00 0.00 0.00 0.00 0.00 0.00 0.00 0.00 0.00 0.00 0.00 0.00 0.00 0.00 0.01 0.01 0.01 0.00 0.00 0.00 0.00 0.00 0.00 0.01 0.01 0.01 0.02 0.02 0.01 0.02 0.02 0.01 0.01
0.00 0.00 0.00 0.00 0.00 0.01 0.01 0.02 0.03 0.02 0.02 0.02 0.02 0.01 0.00 0.00 0.00 0.00 0.00 0.00 0.00 0.00 0.00 0.00 0.01 0.00 0.00 0.00 0.00 0.00 0.01 0.01 0.01 0.01 0.00 0.01 0.01 0.01 0.01 0.01 0.01 0.02 0.03 0.02 0.01 0.02 0.02 0.01 0.01
0.00 0.00 0.00 0.00 0.00 0.00 0.01 0.03 0.07 0.08 0.03 0.02 0.01 0.00 0.00 0.00 0.00 0.00 0.00 0.00 0.00 0.00 0.00 0.00 0.01 0.01 0.01 0.01 0.01 0.01 0.01 0.01 0.01 0.01 0.01 0.01 0.01 0.01 0.01 0.01 0.02 0.02 0.03 0.02 0.01 0.01 0.01 0.01 0.01
0.00 0.00 0.00 0.00 0.00 0.00 0.01 0.05 0.11 0.09 0.04 0.01 0.01 0.00 0.00 0.00 0.00 0.00 0.00 0.00 0.00 0.00 0.00 0.01 0.02 0.02 0.01 0.01 0.01 0.01 0.01 0.01 0.01 0.01 0.00 0.00 0.01 0.01 0.01 0.01 0.01 0.01 0.02 0.01 0.01 0.00 0.01 0.01 0.01
0.00 0.00 0.00 0.00 0.00 0.00 0.01 0.04 0.07 0.07 0.03 0.01 0.02 0.01 0.02 0.01 0.00 0.00 0.00 0.00 0.00 0.00 0.00 0.01 0.02 0.03 0.03 0.02 0.02 0.02 0.02 0.02 0.02 0.01 0.01 0.01 0.01 0.01 0.01 0.01 0.01 0.01 0.01 0.01 0.00 0.00 0.00 0.01 0.01
0.00 0.00 0.00 0.00 0.00 0.00 0.00 0.00 0.01 0.02 0.02 0.01 0.01 0.02 0.03 0.02 0.00 0.00 0.00 0.00 0.01 0.01 0.01 0.02 0.04 0.05 0.06 0.05 0.05 0.04 0.05 0.04 0.03 0.02 0.01 0.01 0.01 0.01 0.01 0.00 0.00 0.01 0.01 0.01 0.01 0.01 0.01 0.01 0.03
0.00 0.00 0.00 0.00 0.00 0.00 0.00 0.00 0.00 0.01 0.01 0.01 0.01 0.00 0.01 0.00 0.00 0.00 0.00 0.00 0.01 0.01 0.02 0.03 0.04 0.06 0.07 0.08 0.10 0.12 0.13 0.13 0.12 0.09 0.05 0.02 0.01 0.01 0.01 0.00 0.01 0.05 0.09 0.11 0.11 0.10 0.09 0.10 0.09
0.00 0.00 0.00 0.00 0.00 0.00 0.00 0.00 0.00 0.01 0.01 0.05 0.04 0.01 0.00 0.00 0.00 0.00 0.00 0.00 0.01 0.01 0.02 0.03 0.04 0.05 0.06 0.09 0.22 0.29 0.28 0.31 0.26 0.26 0.24 0.17 0.11 0.07 0.04 0.04 0.12 0.22 0.31 0.31 0.30 0.37 0.45 0.42 0.29
0.00 0.00 0.00 0.00 0.00 0.00 0.00 0.00 0.00 0.00 0.00 0.02 0.03 0.00 0.00 0.00 0.00 0.01 0.01 0.01 0.01 0.02 0.03 0.03 0.04 0.04 0.05 0.09 0.19 0.33 0.37 0.44 0.42 0.46 0.49 0.51 0.48 0.33 0.25 0.28 0.44 0.51 0.58 0.50 0.58 0.78 0.64 0.58 0.61
0.00 0.00 0.00 0.00 0.00 0.00 0.00 0.00 0.00 0.00 0.00 0.00 0.01 0.01 0.01 0.00 0.01 0.01 0.01 0.02 0.03 0.07 0.12 0.16 0.15 0.12 0.09 0.11 0.18 0.25 0.28 0.35 0.43 0.54 0.65 0.73 0.68 0.68 0.66 0.67 0.72 0.74 0.74 0.74 0.74 0.74 0.75 0.92 1.02
0.00 0.00 0.00 0.00 0.00 0.00 0.00 0.00 0.00 0.00 0.00 0.00 0.01 0.02 0.01 0.01 0.01 0.02 0.03 0.06 0.15 0.29 0.37 0.38 0.33 0.25 0.17 0.16 0.17 0.19 0.26 0.33 0.44 0.57 0.62 0.71 0.89 0.99 0.97 0.81 0.75 0.75 0.83 0.98 1.13 1.08 1.21 1.30 1.17
0.00 0.00 0.00 0.00 0.00 0.00 0.00 0.00 0.00 0.00 0.00 0.00 0.01 0.01 0.02 0.02 0.04 0.09 0.16 0.28 0.44 0.59 0.63 0.62 0.52 0.38 0.32 0.30 0.31 0.35 0.39 0.44 0.50 0.54 0.64 0.81 0.93 1.04 0.99 0.95 0.94 0.94 0.90 0.95 1.19 1.23 1.20 1.08 0.90
0.00 0.00 0.00 0.00 0.00 0.00 0.00 0.00 0.00 0.00 0.00 0.00 0.02 0.04 0.06 0.10 0.18 0.34 0.58 0.85 1.15 1.30 1.13 0.84 0.65 0.59 0.60 0.67 0.69 0.65 0.60 0.56 0.58 0.58 0.65 0.74 0.80 0.88 0.90 0.88 0.84 0.86 0.85 0.83 0.89 0.98 0.99 0.82 0.64
0.00 0.00 0.00 0.00 0.00 0.00 0.00 0.01 0.01 0.00 0.00 0.02 0.06 0.12 0.18 0.28 0.40 0.66 1.02 1.53 2.03 2.23 1.87 1.33 1.15 1.24 1.17 1.07 0.84 0.68 0.61 0.55 0.49 0.46 0.47 0.51 0.53 0.54 0.56 0.54 0.51 0.54 0.52 0.53 0.58 0.62 0.64 0.60 0.56
0.00 0.00 0.01 0.03 0.03 0.01 0.00 0.01 0.01 0.01 0.02 0.05 0.10 0.16 0.22 0.29 0.37 0.52 0.95 1.54 2.25 2.76 2.66 2.12 1.99 2.05 1.56 0.98 0.67 0.52 0.46 0.38 0.34 0.36 0.33 0.34 0.36 0.37 0.40 0.38 0.36 0.35 0.33 0.33 0.34 0.39 0.43 0.44 0.44
0.00 0.01 0.04 0.07 0.05 0.03 0.01 0.01 0.03 0.03 0.04 0.06 0.09 0.13 0.19 0.27 0.31 0.36 0.58 0.85 1.55 2.01 1.97 1.86 1.87 1.53 1.02 0.60 0.41 0.30 0.27 0.23 0.21 0.24 0.25 0.26 0.29 0.31 0.34 0.31 0.29 0.27 0.24 0.25 0.29 0.30 0.31 0.30 0.30
0.00 0.00 0.01 0.02 0.03 0.03 0.01 0.01 0.02 0.02 0.03 0.04 0.05 0.07 0.11 0.20 0.27 0.33 0.37 0.40 0.65 0.82 0.84 0.96 0.93 0.82 0.52 0.36 0.23 0.16 0.14 0.13 0.13 0.16 0.15 0.19 0.23 0.27 0.33 0.27 0.29 0.26 0.21 0.20 0.21 0.21 0.21 0.19 0.17
0.00 0.00 0.00 0.03 0.05 0.03 0.01 0.00 0.01 0.02 0.02 0.02 0.03 0.06 0.10 0.15 0.21 0.19 0.15 0.27 0.31 0.38 0.44 0.47 0.48 0.40 0.24 0.17 0.15 0.13 0.11 0.08 0.07 0.07 0.09 0.09 0.12 0.17 0.23 0.30 0.24 0.23 0.22 0.20 0.17 0.17 0.16 0.14 0.13
0.00 0.00 0.00 0.03 0.04 0.01 0.03 0.08 0.10 0.07 0.03 0.04 0.06 0.07 0.10 0.11 0.07 0.04 0.04 0.08 0.25 0.45 0.39 0.24 0.24 0.19 0.12 0.10 0.10 0.09 0.09 0.09 0.09 0.07 0.07 0.08 0.07 0.09 0.14 0.21 0.23 0.25 0.21 0.23 0.24 0.20 0.17 0.12 0.09
0.01 0.00 0.00 0.00 0.00 0.05 0.09 0.21 0.26 0.15 0.12 0.11 0.11 0.08 0.06 0.03 0.01 0.01 0.02 0.05 0.14 0.26 0.26 0.20 0.19 0.18 0.11 0.08 0.07 0.06 0.06 0.07 0.07 0.07 0.06 0.06 0.06 0.07 0.08 0.10 0.15 0.22 0.24 0.30 0.21 0.20 0.19 0.15 0.09
0.00 0.00 0.00 0.00 0.00 0.02 0.09 0.30 0.36 0.23 0.26 0.16 0.12 0.07 0.03 0.01 0.01 0.00 0.00 0.01 0.02 0.05 0.11 0.14 0.20 0.25 0.17 0.13 0.09 0.08 0.06 0.05 0.06 0.06 0.07 0.08 0.10 0.11 0.12 0.12 0.11 0.12 0.18 0.26 0.28 0.31 0.24 0.21 0.14
0.00 0.00 0.01 0.03 0.04 0.12 0.20 0.21 0.32 0.22 0.18 0.08 0.04 0.02 0.01 0.01 0.01 0.00 0.00 0.00 0.01 0.04 0.06 0.08 0.14 0.19 0.17 0.14 0.13 0.14 0.14 0.13 0.11 0.11 0.11 0.14 0.17 0.19 0.19 0.19 0.20 0.19 0.17 0.17 0.19 0.23 0.27 0.28 0.25
0.00 0.00 0.06 0.13 0.17 0.19 0.10 0.12 0.22 0.11 0.05 0.01 0.01 0.01 0.01 0.00 0.00 0.01 0.01 0.01 0.01 0.03 0.03 0.03 0.05 0.08 0.10 0.09 0.10 0.15 0.23 0.29 0.29 0.25 0.21 0.20 0.21 0.23 0.23 0.22 0.24 0.27 0.27 0.24 0.19 0.15 0.20 0.27 0.28
0.00 0.00 0.01 0.01 0.03 0.04 0.06 0.26 0.19 0.07 0.03 0.01 0.00 0.00 0.00 0.00 0.00 0.00 0.01 0.01 0.01 0.01 0.01 0.01 0.01 0.01 0.02 0.03 0.05 0.07 0.11 0.18 0.26 0.31 0.30 0.30 0.32 0.27 0.23 0.21 0.22 0.25 0.29 0.31 0.28 0.22 0.20 0.22 0.25
0.01 0.00 0.00 0.01 0.00 0.01 0.05 0.15 0.09 0.03 0.01 0.01 0.00 0.00 0.00 0.00 0.00 0.00 0.00 0.00 0.00 0.00 0.00 0.00 0.00 0.00 0.00 0.00 0.01 0.01 0.02 0.03 0.06 0.10 0.14 0.21 0.31 0.30 0.24 0.20 0.19 0.21 0.25 0.29 0.31 0.29 0.29 0.26 0.23
0.01 0.00 0.00 0.00 0.00 0.00 0.01 0.12 0.19 0.06 0.03 0.01 0.01 0.00 0.00 0.00 0.00 0.00 0.00 0.00 0.00 0.00 0.00 0.00 0.00 0.00 0.00 0.00 0.00 0.00 0.01 0.01 0.02 0.03 0.04 0.06 0.11 0.14 0.15 0.15 0.15 0.16 0.18 0.22 0.27 0.32 0.38 0.40 0.36
0.00 0.00 0.00 0.00 0.00 0.00 0.00 0.04 0.07 0.05 0.03 0.02 0.01 0.00 0.00 0.00 0.00 0.00 0.00 0.00 0.00 0.00 0.00 0.00 0.00 0.00 0.00 0.00 0.00 0.00 0.00 0.00 0.00 0.01 0.01 0.01 0.02 0.02 0.03 0.05 0.07 0.09 0.10 0.13 0.18 0.25 0.36 0.49 0.57
0.00 0.01 0.01 0.01 0.01 0.01 0.01 0.01 0.01 0.01 0.01 0.00 0.00 0.00 0.00 0.00 0.00 0.00 0.00 0.00 0.00 0.00 0.00 0.00 0.00 0.00 0.00 0.00 0.00 0.00 0.00 0.00 0.00 0.00 0.00 0.00 0.00 0.00 0.01 0.01 0.02 0.02 0.03 0.05 0.09 0.15 0.22 0.33 0.49

GEFSSGP_prec_meanprecacc_030.txt.gz
Total_Precipitation_Accumulation
0.00 0.00 0.00 0.03 0.13 0.18 0.16 0.05 0.01 0.01 0.01 0.01 0.00 0.00 0.00 0.00 0.02 0.03 0.00 0.00 0.00 0.00 0.00 0.00 0.00 0.00 0.00 0.00 0.00 0.00 0.00 0.00 0.01 0.01 0.02 0.02 0.01 0.01 0.00 0.00 0.00 0.00 0.01 0.01 0.01 0.01 0.01 0.01 0.00
0.00 0.00 0.00 0.02 0.09 0.18 0.12 0.03 0.02 0.01 0.01 0.01 0.02 0.01 0.00 0.00 0.00 0.00 0.00 0.00 0.00 0.00 0.00 0.00 0.00 0.00 0.00 0.00 0.00 0.00 0.00 0.00 0.00 0.01 0.01 0.01 0.00 0.00 0.00 0.00 0.00 0.00 0.01 0.01 0.01 0.01 0.01 0.01 0.00
0.00 0.00 0.00 0.01 0.03 0.09 0.10 0.03 0.01 0.01 0.02 0.03 0.03 0.01 0.00 0.00 0.00 0.00 0.00 0.00 0.00 0.00 0.00 0.00 0.00 0.00 0.00 0.00 0.00 0.00 0.01 0.01 0.01 0.01 0.00 0.01 0.01 0.00 0.00 0.01 0.01 0.01 0.02 0.02 0.02 0.02 0.02 0.01 0.01
0.00 0.00 0.00 0.00 0.00 0.01 0.01 0.02 0.03 0.02 0.03 0.04 0.05 0.02 0.00 0.00 0.00 0.00 0.00 0.00 0.00 0.00 0.00 0.00 0.01 0.00 0.00 0.00 0.00 0.00 0.01 0.01 0.01 0.01 0.00 0.01 0.01 0.01 0.01 0.01 0.01 0.02 0.03 0.02 0.02 0.02 0.02 0.02 0.01
0.00 0.00 0.00 0.00 0.00 0.00 0.01 0.04 0.07 0.08 0.04 0.04 0.05 0.03 0.01 0.00 0.00 0.00 0.00 0.00 0.00 0.00 0.00 0.00 0.01 0.01 0.01 0.01 0.01 0.01 0.01 0.01 0.01 0.01 0.01 0.01 0.01 0.01 0.02 0.02 0.02 0.02 0.03 0.02 0.01 0.01 0.02 0.01 0.01
0.00 0.00 0.00 0.00 0.00 0.00 0.01 0.05 0.11 0.09 0.05 0.04 0.13 0.08 0.02 0.01 0.00 0.00 0.00 0.00 0.00 0.00 0.00 0.01 0.02 0.02 0.01 0.01 0.01 0.01 0.01 0.01 0.01 0.01 0.01 0.00 0.01 0.01 0.02 0.02 0.01 0.02 0.02 0.02 0.01 0.01 0.01 0.01 0.01
0.00 0.00 0.00 0.00 0.00 0.00 0.01 0.04 0.07 0.07 0.04 0.05 0.15 0.17 0.09 0.03 0.01 0.01 0.01 0.01 0.01 0.00 0.01 0.01 0.02 0.03 0.03 0.02 0.02 0.02 0.02 0.02 0.02 0.01 0.01 0.01 0.01 0.01 0.01 0.01 0.01 0.01 0.02 0.02 0.01 0.01 0.01 0.01 0.01
0.00 0.00 0.00 0.00 0.00 0.00 0.00 0.00 0.01 0.02 0.02 0.02 0.07 0.18 0.25 0.10 0.03 0.02 0.02 0.02 0.02 0.02 0.02 0.02 0.04 0.05 0.06 0.05 0.05 0.04 0.05 0.04 0.03 0.02 0.01 0.01 0.01 0.01 0.01 0.01 0.01 0.02 0.03 0.03 0.03 0.03 0.02 0.02 0.04
0.00 0.00 0.00 0.00 0.00 0.00 0.00 0.00 0.00 0.01 0.01 0.02 0.10 0.19 0.14 0.06 0.04 0.04 0.05 0.04 0.04 0.04 0.04 0.04 0.05 0.07 0.09 0.10 0.11 0.13 0.13 0.13 0.12 0.09 0.05 0.03 0.01 0.01 0.01 0.01 0.03 0.07 0.13 0.16 0.16 0.15 0.14 0.15 0.12
0.00 0.00 0.00 0.00 0.00 0.00 0.00 0.00 0.00 0.01 0.01 0.07 0.09 0.08 0.05 0.05 0.05 0.05 0.05 0.05 0.05 0.05 0.05 0.06 0.07 0.10 0.13 0.14 0.28 0.32 0.30 0.34 0.28 0.27 0.25 0.18 0.12 0.08 0.05 0.07 0.18 0.30 0.41 0.44 0.42 0.49 0.57 0.52 0.36
0.00 0.00 0.00 0.00 0.00 0.00 0.00 0.00 0.00 0.00 0.01 0.05 0.11 0.10 0.15 0.13 0.15 0.09 0.08 0.09 0.09 0.08 0.07 0.07 0.08 0.09 0.10 0.13 0.25 0.40 0.43 0.50 0.49 0.51 0.54 0.56 0.53 0.38 0.30 0.35 0.56 0.68 0.80 0.74 0.83 1.04 0.86 0.77 0.76
0.00 0.00 0.00 0.00 0.00 0.00 0.00 0.00 0.00 0.00 0.01 0.02 0.07 0.10 0.13 0.13 0.12 0.15 0.11 0.09 0.12 0.16 0.19 0.22 0.20 0.18 0.15 0.16 0.23 0.31 0.35 0.44 0.53 0.63 0.76 0.85 0.78 0.76 0.73 0.75 0.83 0.93 1.00 1.07 1.13 1.13 1.09 1.21 1.26
0.00 0.00 0.00 0.00 0.00 0.00 0.00 0.00 0.00 0.01 0.01 0.01 0.02 0.05 0.07 0.11 0.13 0.17 0.15 0.14 0.22 0.37 0.45 0.47 0.43 0.34 0.25 0.21 0.20 0.23 0.30 0.38 0.51 0.65 0.71 0.80 0.96 1.05 1.02 0.87 0.83 0.87 1.01 1.21 1.43 1.44 1.61 1.68 1.50
0.00 0.00 0.00 0.00 0.00 0.00 0.00 0.00 0.00 0.01 0.01 0.02 0.03 0.05 0.07 0.10 0.14 0.19 0.27 0.39 0.55 0.71 0.76 0.75 0.65 0.49 0.39 0.35 0.34 0.38 0.42 0.48 0.53 0.57 0.68 0.85 0.96 1.08 1.03 0.99 1.01 1.02 0.99 1.07 1.40 1.57 1.67 1.57 1.33
0.00 0.00 0.00 0.00 0.00 0.00 0.00 0.01 0.01 0.02 0.03 0.04 0.04 0.06 0.10 0.15 0.23 0.42 0.66 0.95 1.27 1.45 1.28 0.96 0.78 0.68 0.65 0.70 0.71 0.66 0.61 0.58 0.60 0.60 0.67 0.76 0.82 0.91 0.93 0.91 0.88 0.92 0.92 0.91 1.02 1.16 1.27 1.17 1.02
0.00 0.00 0.00 0.00 0.00 0.01 0.01 0.04 0.04 0.03 0.05 0.07 0.09 0.14 0.20 0.31 0.44 0.71 1.08 1.61 2.12 2.33 1.98 1.44 1.25 1.30 1.21 1.10 0.85 0.69 0.62 0.55 0.50 0.48 0.49 0.53 0.54 0.56 0.57 0.56 0.53 0.56 0.55 0.58 0.65 0.72 0.79 0.82 0.85
0.00 0.00 0.01 0.04 0.03 0.02 0.04 0.06 0.07 0.10 0.13 0.11 0.13 0.18 0.24 0.32 0.41 0.56 1.00 1.59 2.30 2.81 2.71 2.17 2.02 2.07 1.57 0.98 0.67 0.52 0.47 0.38 0.35 0.37 0.35 0.37 0.39 0.39 0.42 0.40 0.38 0.37 0.34 0.35 0.36 0.43 0.53 0.59 0.65
0.00 0.01 0.04 0.10 0.08 0.09 0.12 0.12 0.15 0.18 0.17 0.20 0.18 0.17 0.21 0.29 0.33 0.39 0.61 0.87 1.57 2.03 1.98 1.87 1.88 1.53 1.02 0.60 0.41 0.30 0.27 0.23 0.21 0.25 0.27 0.28 0.31 0.32 0.36 0.33 0.32 0.28 0.26 0.27 0.31 0.35 0.38 0.39 0.41
0.00 0.01 0.03 0.07 0.10 0.16 0.18 0.19 0.22 0.26 0.29 0.24 0.20 0.16 0.15 0.22 0.28 0.34 0.38 0.41 0.66 0.82 0.84 0.96 0.93 0.82 0.52 0.36 0.23 0.16 0.14 0.13 0.13 0.16 0.16 0.19 0.23 0.28 0.34 0.29 0.31 0.29 0.23 0.23 0.24 0.26 0.27 0.25 0.24
0.00 0.01 0.03 0.08 0.09 0.13 0.17 0.25 0.39 0.44 0.34 0.28 0.25 0.17 0.15 0.17 0.22 0.19 0.15 0.27 0.31 0.38 0.44 0.47 0.48 0.40 0.24 0.17 0.15 0.13 0.11 0.08 0.07 0.07 0.09 0.09 0.12 0.17 0.23 0.30 0.25 0.25 0.25 0.24 0.23 0.24 0.22 0.19 0.20
0.01 0.01 0.02 0.07 0.07 0.09 0.18 0.42 0.48 0.45 0.37 0.29 0.25 0.20 0.14 0.13 0.08 0.05 0.04 0.08 0.25 0.45 0.39 0.24 0.24 0.19 0.12 0.10 0.10 0.09 0.09 0.09 0.09 0.07 0.07 0.08 0.07 0.09 0.14 0.21 0.24 0.27 0.24 0.27 0.31 0.28 0.24 0.18 0.15
0.01 0.01 0.00 0.01 0.02 0.16 0.25 0.50 0.57 0.47 0.45 0.31 0.25 0.22 0.09 0.04 0.02 0.02 0.02 0.05 0.14 0.26 0.26 0.20 0.19 0.18 0.11 0.08 0.07 0.06 0.06 0.07 0.07 0.07 0.06 0.07 0.06 0.07 0.08 0.10 0.15 0.22 0.26 0.33 0.25 0.28 0.28 0.23 0.16
0.00 0.00 0.00 0.01 0.02 0.06 0.16 0.46 0.67 0.50 0.51 0.31 0.19 0.12 0.05 0.02 0.01 0.00 0.00 0.01 0.02 0.05 0.11 0.14 0.20 0.25 0.17 0.13 0.09 0.08 0.06 0.05 0.06 0.06 0.07 0.08 0.10 0.11 0.12 0.12 0.11 0.12 0.19 0.26 0.29 0.35 0.31 0.30 0.25
0.00 0.01 0.02 0.05 0.06 0.16 0.25 0.32 0.56 0.42 0.30 0.17 0.09 0.05 0.03 0.02 0.01 0.00 0.00 0.00 0.01 0.04 0.06 0.08 0.14 0.19 0.17 0.14 0.13 0.14 0.14 0.13 0.11 0.11 0.11 0.14 0.17 0.19 0.19 0.20 0.20 0.19 0.17 0.17 0.19 0.23 0.29 0.33 0.33
0.00 0.01 0.07 0.15 0.20 0.28 0.16 0.37 0.68 0.33 0.18 0.08 0.05 0.03 0.01 0.01 0.01 0.01 0.01 0.01 0.01 0.03 0.03 0.03 0.05 0.08 0.10 0.09 0.10 0.15 0.23 0.29 0.29 0.25 0.22 0.20 0.21 0.23 0.23 0.22 0.24 0.27 0.27 0.24 0.20 0.15 0.20 0.28 0.31
0.00 0.00 0.01 0.02 0.05 0.12 0.19 0.73 0.61 0.17 0.09 0.04 0.02 0.01 0.01 0.01 0.01 0.01 0.01 0.01 0.01 0.01 0.01 0.01 0.01 0.01 0.02 0.03 0.05 0.07 0.11 0.18 0.26 0.31 0.30 0.30 0.32 0.27 0.23 0.21 0.22 0.26 0.29 0.31 0.28 0.22 0.20 0.22 0.26
0.01 0.00 0.00 0.01 0.01 0.06 0.20 0.38 0.21 0.05 0.03 0.02 0.01 0.01 0.01 0.00 0.00 0.00 0.00 0.00 0.00 0.00 0.00 0.00 0.00 0.00 0.00 0.00 0.01 0.01 0.02 0.03 0.06 0.10 0.14 0.21 0.31 0.30 0.24 0.20 0.19 0.21 0.25 0.29 0.31 0.29 0.29 0.26 0.23
0.01 0.00 0.00 0.00 0.00 0.03 0.11 0.25 0.27 0.08 0.03 0.02 0.01 0.00 0.00 0.00 0.00 0.00 0.00 0.00 0.00 0.00 0.00 0.00 0.00 0.00 0.00 0.00 0.00 0.00 0.01 0.01 0.02 0.03 0.04 0.06 0.11 0.14 0.15 0.15 0.15 0.16 0.18 0.22 0.27 0.33 0.38 0.40 0.36
0.00 0.00 0.00 0.00 0.00 0.01 0.03 0.08 0.09 0.06 0.03 0.02 0.01 0.00 0.00 0.00 0.00 0.00 0.00 0.00 0.00 0.00 0.00 0.00 0.00 0.00 0.00 0.00 0.00 0.00 0.00 0.00 0.00 0.01 0.01 0.01 0.02 0.02 0.03 0.05 0.07 0.09 0.10 0.14 0.18 0.25 0.36 0.49 0.57
0.00 0.01 0.01 0.01 0.01 0.01 0.01 0.01 0.01 0.01 0.01 0.00 0.00 0.00 0.00 0.00 0.00 0.00 0.00 0.00 0.00 0.00 0.00 0.00 0.00 0.00 0.00 0.00 0.00 0.00 0.00 0.00 0.00 0.00 0.00 0.00 0.00 0.00 0.01 0.01 0.02 0.02 0.03 0.06 0.09 0.15 0.22 0.34 0.50

GEFSSGP_prec_meanprecacc_036.txt.gz
Total_Precipitation_Accumulation
0.00 0.00 0.00 0.03 0.13 0.18 0.17 0.06 0.02 0.02 0.01 0.01 0.01 0.01 0.01 0.01 0.03 0.04 0.00 0.00 0.00 0.00 0.00 0.01 0.00 0.00 0.00 0.00 0.00 0.00 0.00 0.00 0.01 0.01 0.02 0.02 0.01 0.01 0.00 0.00 0.00 0.00 0.01 0.01 0.01 0.01 0.01 0.01 0.00
0.00 0.00 0.00 0.02 0.09 0.18 0.12 0.04 0.02 0.02 0.01 0.02 0.02 0.01 0.00 0.00 0.00 0.00 0.00 0.00 0.00 0.00 0.00 0.00 0.00 0.00 0.00 0.00 0.00 0.00 0.01 0.01 0.01 0.01 0.01 0.01 0.00 0.00 0.00 0.00 0.00 0.01 0.01 0.01 0.02 0.02 0.01 0.01 0.00
0.00 0.00 0.00 0.01 0.03 0.09 0.10 0.04 0.02 0.02 0.03 0.03 0.04 0.02 0.00 0.00 0.00 0.00 0.00 0.00 0.00 0.00 0.00 0.00 0.01 0.00 0.00 0.00 0.00 0.00 0.01 0.01 0.01 0.01 0.01 0.01 0.01 0.01 0.01 0.01 0.01 0.01 0.02 0.03 0.03 0.03 0.03 0.02 0.01
0.00 0.00 0.00 0.00 0.00 0.01 0.01 0.02 0.03 0.03 0.04 0.05 0.05 0.02 0.00 0.00 0.00 0.00 0.00 0.00 0.00 0.00 0.00 0.00 0.01 0.01 0.00 0.00 0.00 0.01 0.01 0.01 0.01 0.01 0.01 0.01 0.01 0.01 0.01 0.01 0.02 0.03 0.05 0.04 0.05 0.05 0.04 0.02 0.01
0.00 0.00 0.00 0.00 0.00 0.00 0.01 0.04 0.07 0.09 0.05 0.05 0.05 0.03 0.01 0.00 0.00 0.00 0.00 0.00 0.00 0.00 0.00 0.00 0.01 0.01 0.01 0.01 0.01 0.01 0.01 0.02 0.01 0.01 0.01 0.01 0.01 0.02 0.02 0.02 0.02 0.03 0.04 0.04 0.05 0.05 0.05 0.03 0.01
0.00 0.00 0.00 0.00 0.00 0.00 0.01 0.06 0.12 0.11 0.06 0.05 0.13 0.09 0.02 0.01 0.01 0.01 0.01 0.01 0.00 0.00 0.00 0.01 0.02 0.02 0.01 0.01 0.01 0.01 0.01 0.01 0.02 0.01 0.01 0.01 0.02 0.02 0.03 0.03 0.03 0.03 0.04 0.04 0.04 0.05 0.05 0.04 0.02
0.00 0.00 0.00 0.00 0.00 0.01 0.02 0.05 0.08 0.09 0.05 0.06 0.16 0.17 0.09 0.04 0.02 0.03 0.03 0.02 0.01 0.01 0.01 0.01 0.03 0.03 0.03 0.02 0.02 0.02 0.02 0.02 0.02 0.02 0.01 0.01 0.02 0.02 0.03 0.03 0.03 0.03 0.04 0.05 0.05 0.05 0.05 0.05 0.04
0.00 0.00 0.00 0.00 0.00 0.01 0.02 0.01 0.02 0.03 0.03 0.03 0.07 0.18 0.25 0.10 0.05 0.06 0.06 0.04 0.04 0.02 0.02 0.02 0.04 0.05 0.06 0.05 0.05 0.05 0.05 0.05 0.03 0.02 0.02 0.02 0.02 0.02 0.03 0.03 0.03 0.04 0.06 0.08 0.10 0.10 0.10 0.10 0.10
0.00 0.00 0.00 0.00 0.00 0.01 0.01 0.01 0.01 0.02 0.02 0.03 0.10 0.20 0.15 0.08 0.08 0.09 0.10 0.08 0.07 0.05 0.05 0.05 0.06 0.08 0.10 0.10 0.11 0.14 0.14 0.14 0.13 0.09 0.05 0.03 0.02 0.01 0.01 0.02 0.05 0.10 0.17 0.23 0.27 0.28 0.29 0.29 0.23
0.00 0.00 0.00 0.00 0.00 0.00 0.01 0.01 0.01 0.01 0.02 0.07 0.10 0.09 0.06 0.08 0.12 0.12 0.12 0.12 0.12 0.11 0.11 0.12 0.12 0.14 0.16 0.16 0.31 0.36 0.34 0.37 0.31 0.30 0.26 0.19 0.14 0.09 0.06 0.09 0.21 0.35 0.50 0.60 0.63 0.74 0.81 0.72 0.52
0.00 0.00 0.00 0.00 0.00 0.00 0.00 0.01 0.01 0.01 0.02 0.06 0.13 0.11 0.17 0.17 0.23 0.19 0.19 0.19 0.20 0.20 0.17 0.17 0.18 0.19 0.20 0.23 0.34 0.49 0.51 0.54 0.52 0.54 0.57 0.59 0.56 0.42 0.35 0.41 0.63 0.77 0.94 0.93 1.05 1.29 1.08 0.97 0.93
0.00 0.00 0.00 0.00 0.00 0.00 0.00 0.01 0.02 0.02 0.03 0.04 0.09 0.13 0.17 0.19 0.22 0.28 0.26 0.22 0.24 0.28 0.31 0.36 0.38 0.37 0.36 0.38 0.39 0.44 0.44 0.50 0.58 0.68 0.81 0.90 0.84 0.83 0.79 0.82 0.91 1.01 1.10 1.19 1.28 1.29 1.26 1.37 1.40
0.00 0.00 0.00 0.00 0.00 0.00 0.00 0.02 0.03 0.03 0.04 0.05 0.07 0.11 0.15 0.21 0.25 0.29 0.29 0.28 0.36 0.52 0.61 0.65 0.65 0.60 0.51 0.40 0.36 0.36 0.40 0.45 0.56 0.68 0.75 0.84 1.02 1.11 1.08 0.93 0.89 0.92 1.06 1.28 1.52 1.56 1.75 1.81 1.60
0.00 0.00 0.00 0.00 0.00 0.00 0.01 0.02 0.03 0.05 0.06 0.09 0.11 0.14 0.17 0.22 0.28 0.34 0.43 0.55 0.73 0.90 0.96 0.97 0.89 0.73 0.66 0.56 0.47 0.48 0.49 0.53 0.56 0.59 0.70 0.87 0.98 1.12 1.07 1.03 1.06 1.06 1.02 1.11 1.44 1.63 1.75 1.67 1.42
0.00 0.00 0.00 0.00 0.00 0.01 0.01 0.03 0.04 0.06 0.10 0.13 0.14 0.16 0.21 0.27 0.37 0.57 0.82 1.11 1.45 1.65 1.48 1.17 0.96 0.84 0.78 0.79 0.76 0.69 0.64 0.59 0.60 0.60 0.67 0.76 0.83 0.92 0.95 0.93 0.90 0.93 0.94 0.94 1.04 1.19 1.31 1.23 1.08
0.00 0.00 0.00 0.00 0.00 0.01 0.02 0.07 0.08 0.09 0.13 0.17 0.18 0.23 0.29 0.42 0.56 0.83 1.20 1.74 2.27 2.46 2.11 1.55 1.34 1.38 1.26 1.12 0.87 0.69 0.62 0.56 0.50 0.48 0.49 0.53 0.55 0.57 0.59 0.58 0.55 0.57 0.56 0.59 0.67 0.74 0.82 0.85 0.88
0.00 0.00 0.01 0.04 0.03 0.02 0.05 0.10 0.13 0.17 0.21 0.20 0.21 0.28 0.35 0.42 0.50 0.65 1.10 1.69 2.40 2.89 2.78 2.22 2.06 2.10 1.58 0.98 0.67 0.52 0.47 0.38 0.35 0.37 0.35 0.37 0.39 0.40 0.43 0.41 0.40 0.38 0.36 0.36 0.38 0.45 0.54 0.61 0.66
0.00 0.01 0.04 0.10 0.08 0.09 0.13 0.15 0.21 0.26 0.25 0.28 0.26 0.27 0.33 0.38 0.40 0.45 0.66 0.92 1.60 2.05 2.00 1.88 1.88 1.53 1.02 0.60 0.41 0.30 0.27 0.23 0.21 0.25 0.27 0.28 0.31 0.33 0.36 0.33 0.32 0.29 0.27 0.28 0.33 0.36 0.39 0.40 0.43
0.00 0.01 0.03 0.07 0.11 0.16 0.20 0.22 0.29 0.34 0.36 0.31 0.28 0.23 0.20 0.26 0.32 0.36 0.40 0.42 0.66 0.82 0.84 0.96 0.93 0.82 0.52 0.36 0.23 0.16 0.14 0.13 0.13 0.16 0.16 0.19 0.23 0.28 0.34 0.29 0.31 0.29 0.23 0.23 0.25 0.28 0.29 0.27 0.27
0.01 0.01 0.04 0.08 0.10 0.13 0.19 0.28 0.45 0.53 0.42 0.35 0.33 0.24 0.19 0.20 0.23 0.20 0.16 0.27 0.31 0.38 0.44 0.47 0.48 0.40 0.24 0.17 0.15 0.13 0.11 0.08 0.07 0.07 0.09 0.09 0.12 0.17 0.23 0.30 0.25 0.25 0.25 0.24 0.23 0.25 0.23 0.21 0.23
0.01 0.02 0.03 0.07 0.07 0.09 0.20 0.45 0.52 0.51 0.43 0.35 0.31 0.24 0.16 0.14 0.09 0.05 0.04 0.08 0.25 0.45 0.39 0.24 0.24 0.19 0.12 0.10 0.10 0.09 0.09 0.09 0.09 0.07 0.07 0.08 0.07 0.09 0.14 0.21 0.24 0.27 0.24 0.27 0.31 0.28 0.25 0.19 0.19
0.02 0.02 0.01 0.01 0.03 0.17 0.26 0.51 0.61 0.52 0.53 0.37 0.29 0.25 0.10 0.05 0.02 0.02 0.03 0.05 0.14 0.26 0.26 0.20 0.19 0.18 0.11 0.08 0.07 0.06 0.06 0.07 0.07 0.07 0.06 0.07 0.06 0.07 0.08 0.10 0.15 0.22 0.26 0.33 0.25 0.28 0.28 0.23 0.18
0.01 0.01 0.01 0.01 0.03 0.07 0.17 0.47 0.68 0.53 0.56 0.35 0.21 0.14 0.06 0.02 0.01 0.00 0.00 0.01 0.02 0.05 0.11 0.14 0.20 0.25 0.17 0.13 0.09 0.08 0.06 0.05 0.06 0.06 0.07 0.08 0.10 0.11 0.12 0.12 0.11 0.12 0.19 0.26 0.29 0.35 0.31 0.30 0.26
0.00 0.01 0.03 0.06 0.08 0.17 0.25 0.32 0.57 0.43 0.31 0.17 0.10 0.05 0.03 0.02 0.01 0.01 0.00 0.00 0.01 0.04 0.06 0.08 0.14 0.19 0.17 0.14 0.13 0.14 0.14 0.13 0.11 0.11 0.11 0.14 0.17 0.19 0.19 0.20 0.20 0.19 0.17 0.17 0.19 0.23 0.29 0.33 0.33
0.01 0.01 0.08 0.16 0.20 0.28 0.16 0.37 0.68 0.33 0.18 0.08 0.05 0.03 0.02 0.01 0.01 0.01 0.01 0.01 0.01 0.03 0.03 0.03 0.05 0.08 0.10 0.09 0.10 0.15 0.23 0.29 0.29 0.25 0.22 0.20 0.21 0.23 0.23 0.22 0.24 0.27 0.27 0.24 0.20 0.15 0.20 0.28 0.31
0.00 0.01 0.02 0.02 0.05 0.12 0.19 0.74 0.61 0.17 0.09 0.05 0.02 0.01 0.01 0.01 0.01 0.01 0.01 0.01 0.01 0.01 0.01 0.01 0.01 0.01 0.02 0.03 0.05 0.07 0.11 0.18 0.26 0.31 0.30 0.30 0.32 0.27 0.23 0.21 0.22 0.26 0.29 0.31 0.28 0.22 0.20 0.22 0.26
0.01 0.00 0.00 0.01 0.01 0.06 0.21 0.38 0.21 0.05 0.03 0.02 0.01 0.01 0.01 0.00 0.00 0.00 0.00 0.00 0.00 0.00 0.00 0.00 0.00 0.00 0.00 0.00 0.01 0.01 0.02 0.03 0.06 0.10 0.14 0.21 0.31 0.30 0.24 0.20 0.19 0.21 0.25 0.29 0.31 0.29 0.29 0.26 0.23
0.01 0.00 0.00 0.00 0.00 0.03 0.12 0.26 0.27 0.08 0.03 0.02 0.01 0.01 0.00 0.00 0.00 0.00 0.00 0.00 0.00 0.00 0.00 0.00 0.00 0.00 0.00 0.00 0.00 0.00 0.01 0.01 0.02 0.03 0.04 0.06 0.11 0.14 0.15 0.15 0.15 0.16 0.18 0.22 0.27 0.33 0.38 0.40 0.36
0.00 0.00 0.00 0.00 0.00 0.01 0.03 0.08 0.09 0.06 0.03 0.02 0.01 0.00 0.00 0.00 0.00 0.00 0.00 0.00 0.00 0.00 0.00 0.00 0.00 0.00 0.00 0.00 0.00 0.00 0.00 0.00 0.00 0.01 0.01 0.01 0.02 0.02 0.03 0.05 0.07 0.09 0.10 0.14 0.18 0.25 0.36 0.49 0.57
0.00 0.01 0.01 0.01 0.01 0.01 0.01 0.01 0.01 0.01 0.01 0.00 0.00 0.00 0.00 0.00 0.00 0.00 0.00 0.00 0.00 0.00 0.00 0.00 0.00 0.00 0.00 0.00 0.00 0.00 0.00 0.00 0.00 0.00 0.00 0.00 0.00 0.00 0.01 0.01 0.02 0.02 0.03 0.06 0.09 0.15 0.22 0.34 0.50